English version
lugares datos climáticos artículos

datos de Mairena del Aljarafe, Sevilla, España
Año Mes Dia Mostrar

  Fecha       hora        Temp.ext.    Hum.ext.  Dir.Viento   Vel.Viento  Presion al NM   T.int. Prec.hoy 

   13-08-2020    11:15      24.4º(+1.6)     73%      090 (E)      1.6 km/h    1015.8 hpa     26.0º    0.0 mm
   13-08-2020    11:10      24.2º(+1.5)     74%      090 (E)      3.2 km/h    1015.8 hpa     25.9º    0.0 mm
   13-08-2020    11:05      23.9º(+1.4)     75%      112 (E)      3.2 km/h    1015.8 hpa     25.8º    0.0 mm
   13-08-2020    11:00      23.6º(+1.3)     76%      112 (E)      3.2 km/h    1015.7 hpa     25.7º    0.0 mm
   13-08-2020    10:55      23.4º(+1.1)     76%      112 (E)      4.8 km/h    1015.8 hpa     25.7º    0.0 mm
   13-08-2020    10:50      23.3º(+1.2)     77%      112 (E)      4.8 km/h    1015.9 hpa     25.6º    0.0 mm
   13-08-2020    10:45      23.2º(+1.4)     77%      112 (E)      4.8 km/h    1016.0 hpa     25.6º    0.0 mm
   13-08-2020    10:40      23.1º(+1.7)     78%      112 (E)      4.8 km/h    1016.0 hpa     25.5º    0.0 mm
   13-08-2020    10:35      22.7º(+1.4)     79%      112 (E)      3.2 km/h    1016.0 hpa     25.4º    0.0 mm
   13-08-2020    10:30      22.5º(+1.3)     78%      090 (E)      6.4 km/h    1015.9 hpa     25.3º    0.0 mm
   13-08-2020    10:25      22.5º(+1.4)     78%      090 (E)      6.4 km/h    1015.9 hpa     25.3º    0.0 mm
   13-08-2020    10:20      22.6º(+1.7)     78%      090 (E)      3.2 km/h    1015.8 hpa     25.2º    0.0 mm
   13-08-2020    10:15      22.3º(+1.6)     80%      112 (E)      3.2 km/h    1015.7 hpa     25.2º    0.0 mm
   13-08-2020    10:10      22.1º(+1.7)     79%      112 (E)      6.4 km/h    1015.6 hpa     25.1º    0.0 mm
   13-08-2020    10:05      22.0º(+1.9)     79%      112 (E)      4.8 km/h    1015.6 hpa     25.1º    0.0 mm
   13-08-2020    10:00      21.9º(+2.0)     81%      112 (E)      4.8 km/h    1015.5 hpa     25.0º    0.0 mm
   13-08-2020    09:55      21.7º(+1.8)     82%      135(SE)      8.0 km/h    1015.6 hpa     24.9º    0.0 mm
   13-08-2020    09:50      21.6º(+1.8)     82%      112 (E)      9.7 km/h    1015.6 hpa     24.9º    0.0 mm
   13-08-2020    09:45      21.6º(+2.1)     83%      112 (E)      8.0 km/h    1015.6 hpa     24.9º    0.0 mm
   13-08-2020    09:40      21.4º(+2.1)     84%      112 (E)      8.0 km/h    1015.5 hpa     24.9º    0.0 mm
   13-08-2020    09:35      21.4º(+2.3)     85%      112 (E)      8.0 km/h    1015.5 hpa     24.9º    0.0 mm
   13-08-2020    09:30      21.3º(+2.3)     86%      135(SE)      8.0 km/h    1015.4 hpa     24.8º    0.0 mm
   13-08-2020    09:25      21.2º(+2.4)     87%      112 (E)      8.0 km/h    1015.4 hpa     24.8º    0.0 mm
   13-08-2020    09:20      21.0º(+2.4)     87%      112 (E)      9.7 km/h    1015.4 hpa     24.8º    0.0 mm
   13-08-2020    09:15      20.9º(+2.5)     87%      135(SE)      8.0 km/h    1015.4 hpa     24.8º    0.0 mm
   13-08-2020    09:10      20.9º(+2.5)     87%      112 (E)      9.7 km/h    1015.4 hpa     24.9º    0.0 mm
   13-08-2020    09:05      20.7º(+2.4)     88%      112 (E)      9.7 km/h    1015.3 hpa     25.0º    0.0 mm
   13-08-2020    09:00      20.7º(+2.4)     88%      112 (E)      6.4 km/h    1015.4 hpa     25.1º    0.0 mm
   13-08-2020    08:55      20.6º(+2.3)     88%      112 (E)      9.7 km/h    1015.4 hpa     25.1º    0.0 mm
   13-08-2020    08:50      20.6º(+2.4)     88%      112 (E)      8.0 km/h    1015.3 hpa     25.2º    0.0 mm
   13-08-2020    08:45      20.5º(+2.4)     89%      112 (E)      6.4 km/h    1015.4 hpa     25.2º    0.0 mm
   13-08-2020    08:40      20.4º(+2.3)     88%      090 (E)     12.9 km/h    1015.2 hpa     25.3º    0.0 mm
   13-08-2020    08:35      20.4º(+2.5)     88%      090 (E)      9.7 km/h    1015.2 hpa     25.3º    0.0 mm
   13-08-2020    08:30      20.3º(+2.5)     88%      112 (E)      8.0 km/h    1015.1 hpa     25.4º    0.0 mm
   13-08-2020    08:25      20.3º(+2.4)     89%      090 (E)      9.7 km/h    1015.0 hpa     25.4º    0.0 mm
   13-08-2020    08:20      20.3º(+2.5)     89%      090 (E)      9.7 km/h    1015.0 hpa     25.5º    0.0 mm
   13-08-2020    08:15      20.2º(+2.4)     89%      090 (E)      9.7 km/h    1015.0 hpa     25.5º    0.0 mm
   13-08-2020    08:10      20.2º(+2.4)     89%      090 (E)      9.7 km/h    1014.8 hpa     25.5º    0.0 mm
   13-08-2020    08:05      20.3º(+2.5)     89%      090 (E)     11.3 km/h    1014.8 hpa     25.5º    0.0 mm
   13-08-2020    08:00      20.3º(+2.4)     89%      090 (E)      9.7 km/h    1014.8 hpa     25.5º    0.0 mm
   13-08-2020    07:55      20.3º(+2.4)     89%      090 (E)      8.0 km/h    1014.6 hpa     25.5º    0.0 mm
   13-08-2020    07:50      20.3º(+2.4)     89%      090 (E)      9.7 km/h    1014.6 hpa     25.6º    0.0 mm
   13-08-2020    07:45      20.4º(+2.5)     89%      090 (E)      8.0 km/h    1014.5 hpa     25.6º    0.0 mm
   13-08-2020    07:40      20.4º(+2.5)     89%      112 (E)      6.4 km/h    1014.5 hpa     25.6º    0.0 mm
   13-08-2020    07:35      20.3º(+2.4)     89%      112 (E)      4.8 km/h    1014.5 hpa     25.6º    0.0 mm
   13-08-2020    07:30      20.3º(+2.3)     89%      112 (E)      4.8 km/h    1014.5 hpa     25.6º    0.0 mm
   13-08-2020    07:25      20.3º(+2.2)     89%      112 (E)      4.8 km/h    1014.4 hpa     25.6º    0.0 mm
   13-08-2020    07:20      20.3º(+2.2)     89%      112 (E)      4.8 km/h    1014.5 hpa     25.7º    0.0 mm
   13-08-2020    07:15      20.2º(+2.0)     89%      112 (E)      3.2 km/h    1014.5 hpa     25.7º    0.0 mm
   13-08-2020    07:10      20.2º(+2.0)     90%      112 (E)      6.4 km/h    1014.5 hpa     25.7º    0.0 mm
   13-08-2020    07:05      20.1º(+1.8)     90%      112 (E)      3.2 km/h    1014.5 hpa     25.7º    0.0 mm
   13-08-2020    07:00      20.1º(+1.8)     89%      112 (E)      4.8 km/h    1014.4 hpa     25.7º    0.0 mm
   13-08-2020    06:55      20.1º(+1.7)     89%      112 (E)      3.2 km/h    1014.5 hpa     25.7º    0.0 mm
   13-08-2020    06:50      20.0º(+1.5)     89%      112 (E)      4.8 km/h    1014.4 hpa     25.7º    0.0 mm
   13-08-2020    06:45      19.9º(+1.3)     90%      112 (E)      3.2 km/h    1014.3 hpa     25.7º    0.0 mm
   13-08-2020    06:40      19.9º(+1.1)     90%      112 (E)      4.8 km/h    1014.3 hpa     25.7º    0.0 mm
   13-08-2020    06:35      19.9º(+1.0)     90%      112 (E)      6.4 km/h    1014.2 hpa     25.7º    0.0 mm
   13-08-2020    06:30      19.8º(+0.7)     90%      112 (E)      3.2 km/h    1014.2 hpa     25.7º    0.0 mm
   13-08-2020    06:25      19.8º(+0.7)     90%      112 (E)      1.6 km/h    1014.2 hpa     25.7º    0.0 mm
   13-08-2020    06:20      19.7º(+0.6)     90%      112 (E)      1.6 km/h    1014.2 hpa     25.7º    0.0 mm
   13-08-2020    06:15      19.7º(+0.6)     90%      112 (E)      3.2 km/h    1014.2 hpa     25.7º    0.0 mm
   13-08-2020    06:10      19.7º(+0.5)     90%      112 (E)      3.2 km/h    1014.2 hpa     25.7º    0.0 mm
   13-08-2020    06:05      19.7º(+0.5)     90%      112 (E)      3.2 km/h    1014.2 hpa     25.7º    0.0 mm
   13-08-2020    06:00      19.6º(+0.3)     90%      112 (E)      4.8 km/h    1014.2 hpa     25.7º    0.0 mm
   13-08-2020    05:55      19.6º(+0.2)     90%      112 (E)      3.2 km/h    1014.2 hpa     25.7º    0.0 mm
   13-08-2020    05:50      19.5º(+0.1)     90%      112 (E)      1.6 km/h    1014.2 hpa     25.7º    0.0 mm
   13-08-2020    05:45      19.5º(+0.0)     90%      112 (E)      3.2 km/h    1014.2 hpa     25.7º    0.0 mm
   13-08-2020    05:40      19.5º(-0.1)     90%      112 (E)      1.6 km/h    1014.2 hpa     25.7º    0.0 mm
   13-08-2020    05:35      19.5º(-0.2)     89%      112 (E)      3.2 km/h    1014.3 hpa     25.6º    0.0 mm
   13-08-2020    05:30      19.6º(-0.2)     89%      112 (E)      3.2 km/h    1014.3 hpa     25.6º    0.0 mm
   13-08-2020    05:25      19.6º(-0.3)     89%      112 (E)      1.6 km/h    1014.2 hpa     25.7º    0.0 mm
   13-08-2020    05:20      19.6º(-0.3)     89%      112 (E)      1.6 km/h    1014.2 hpa     25.7º    0.0 mm
   13-08-2020    05:15      19.7º(-0.2)     89%      112 (E)      1.6 km/h    1014.2 hpa     25.8º    0.0 mm
   13-08-2020    05:10      19.7º(-0.3)     89%         -         0.0 km/h    1014.2 hpa     25.8º    0.0 mm
   13-08-2020    05:05      19.7º(-0.4)     89%         -         0.0 km/h    1014.2 hpa     25.8º    0.0 mm
   13-08-2020    05:00      19.8º(-0.3)     89%      112 (E)      1.6 km/h    1014.3 hpa     25.8º    0.0 mm
   13-08-2020    04:55      19.8º(-0.3)     89%         -         0.0 km/h    1014.3 hpa     25.8º    0.0 mm
   13-08-2020    04:50      19.8º(-0.4)     89%      112 (E)      1.6 km/h    1014.2 hpa     25.7º    0.0 mm
   13-08-2020    04:45      19.9º(-0.3)     89%         -         0.0 km/h    1014.3 hpa     25.7º    0.0 mm
   13-08-2020    04:40      19.8º(-0.4)     89%         -         0.0 km/h    1014.3 hpa     25.6º    0.0 mm
   13-08-2020    04:35      19.8º(-0.5)     89%         -         0.0 km/h    1014.3 hpa     25.6º    0.0 mm
   13-08-2020    04:30      19.8º(-0.5)     89%         -         0.0 km/h    1014.2 hpa     25.5º    0.0 mm
   13-08-2020    04:25      19.8º(-0.5)     89%         -         0.0 km/h    1014.1 hpa     25.4º    0.0 mm
   13-08-2020    04:20      19.8º(-0.6)     89%      112 (E)      1.6 km/h    1014.2 hpa     25.4º    0.0 mm
   13-08-2020    04:15      19.8º(-0.6)     89%      112 (E)      1.6 km/h    1014.3 hpa     25.4º    0.0 mm
   13-08-2020    04:10      19.8º(-0.6)     88%         -         0.0 km/h    1014.3 hpa     25.4º    0.0 mm
   13-08-2020    04:05      19.8º(-0.6)     88%         -         0.0 km/h    1014.4 hpa     25.3º    0.0 mm
   13-08-2020    04:00      19.8º(-0.7)     88%         -         0.0 km/h    1014.4 hpa     25.3º    0.0 mm
   13-08-2020    03:55      19.9º(-0.7)     88%      112 (E)      1.6 km/h    1014.5 hpa     25.3º    0.0 mm
   13-08-2020    03:50      19.9º(-0.7)     88%      112 (E)      1.6 km/h    1014.6 hpa     25.3º    0.0 mm
   13-08-2020    03:45      20.0º(-0.6)     88%      157(SE)      1.6 km/h    1014.6 hpa     25.3º    0.0 mm
   13-08-2020    03:40      20.1º(-0.6)     88%      157(SE)      1.6 km/h    1014.8 hpa     25.3º    0.0 mm
   13-08-2020    03:35      20.1º(-0.6)     88%      157(SE)      1.6 km/h    1014.9 hpa     25.3º    0.0 mm
   13-08-2020    03:30      20.2º(-0.5)     88%      112 (E)      3.2 km/h    1014.9 hpa     25.4º    0.0 mm
   13-08-2020    03:25      20.2º(-0.5)     88%      157(SE)      1.6 km/h    1014.9 hpa     25.4º    0.0 mm
   13-08-2020    03:20      20.2º(-0.5)     88%      135(SE)      3.2 km/h    1015.0 hpa     25.4º    0.0 mm
   13-08-2020    03:15      20.2º(-0.6)     88%      067(NE)      3.2 km/h    1015.1 hpa     25.5º    0.0 mm
   13-08-2020    03:10      20.3º(-0.4)     88%      135(SE)      3.2 km/h    1015.1 hpa     25.5º    0.0 mm
   13-08-2020    03:05      20.3º(-0.4)     88%      067(NE)      3.2 km/h    1015.1 hpa     25.6º    0.0 mm
   13-08-2020    03:00      20.3º(-0.4)     88%      090 (E)      3.2 km/h    1015.1 hpa     25.7º    0.0 mm
   13-08-2020    02:55      20.3º(-0.5)     87%      090 (E)      1.6 km/h    1015.1 hpa     25.7º    0.0 mm
   13-08-2020    02:50      20.3º(-0.5)     87%      135(SE)      3.2 km/h    1015.1 hpa     25.7º    0.0 mm
   13-08-2020    02:45      20.3º(-0.5)     87%      135(SE)      1.6 km/h    1015.0 hpa     25.8º    0.0 mm
   13-08-2020    02:40      20.4º(-0.4)     87%      135(SE)      1.6 km/h    1015.1 hpa     25.9º    0.0 mm
   13-08-2020    02:35      20.4º(-0.5)     87%         -         0.0 km/h    1015.1 hpa     25.9º    0.0 mm
   13-08-2020    02:30      20.6º(-0.3)     86%         -         0.0 km/h    1015.1 hpa     26.0º    0.0 mm
   13-08-2020    02:25      20.6º(-0.3)     86%         -         0.0 km/h    1015.2 hpa     26.0º    0.0 mm
   13-08-2020    02:20      20.6º(-0.3)     86%         -         0.0 km/h    1015.2 hpa     26.0º    0.0 mm
   13-08-2020    02:15      20.6º(-0.4)     86%         -         0.0 km/h    1015.2 hpa     26.0º    0.0 mm
   13-08-2020    02:10      20.7º(-0.4)     86%         -         0.0 km/h    1015.3 hpa     26.0º    0.0 mm
   13-08-2020    02:05      20.7º(-0.4)     87%         -         0.0 km/h    1015.3 hpa     26.0º    0.0 mm
   13-08-2020    02:00      20.6º(-0.5)     87%         -         0.0 km/h    1015.3 hpa     26.0º    0.0 mm
   13-08-2020    01:55      20.6º(----)     87%      157(SE)      3.2 km/h    1015.2 hpa     26.1º    0.0 mm
   13-08-2020    01:50      20.6º(----)     87%      135(SE)      1.6 km/h    1015.2 hpa     26.2º    0.0 mm
   13-08-2020    01:45      20.7º(----)     87%      112 (E)      1.6 km/h    1015.1 hpa     26.3º    0.0 mm
   13-08-2020    01:40      20.7º(----)     87%      112 (E)      1.6 km/h    1015.2 hpa     26.4º    0.0 mm
   13-08-2020    01:35      20.8º(----)     87%      157(SE)      1.6 km/h    1015.3 hpa     26.5º    0.0 mm
   13-08-2020    01:30      20.9º(----)     86%      157(SE)      1.6 km/h    1015.3 hpa     26.7º    0.0 mm
   13-08-2020    01:25      21.1º(----)     86%         -         0.0 km/h    1015.3 hpa     26.8º    0.0 mm
   13-08-2020    01:20      21.1º(----)     86%         -         0.0 km/h    1015.3 hpa     26.9º    0.0 mm
   13-08-2020    01:15      21.2º(----)     85%      157(SE)      1.6 km/h    1015.2 hpa     27.0º    0.0 mm
   13-08-2020    01:10      21.4º(----)     85%      180 (S)      1.6 km/h    1015.3 hpa     27.1º    0.0 mm
   13-08-2020    01:05      21.4º(----)     85%      157(SE)      1.6 km/h    1015.2 hpa     27.2º    0.0 mm
   13-08-2020    01:00      21.4º(----)     84%      180 (S)      1.6 km/h    1015.1 hpa     27.2º    0.0 mm
   13-08-2020    00:55      21.4º(----)     84%      202 (S)      1.6 km/h    1015.1 hpa     27.2º    0.0 mm
   13-08-2020    00:50      21.5º(----)     84%      202 (S)      1.6 km/h    1015.2 hpa     27.3º    0.0 mm
   13-08-2020    00:45      21.6º(----)     83%      202 (S)      3.2 km/h    1015.1 hpa     27.2º    0.0 mm
   13-08-2020    00:40      21.7º(----)     82%      157(SE)      1.6 km/h    1015.2 hpa     27.2º    0.0 mm
   13-08-2020    00:35      21.8º(----)     82%      180 (S)      1.6 km/h    1015.1 hpa     27.2º    0.0 mm
   13-08-2020    00:30      21.8º(----)     81%      180 (S)      1.6 km/h    1015.1 hpa     27.2º    0.0 mm
   13-08-2020    00:25      21.8º(----)     81%      180 (S)      1.6 km/h    1015.2 hpa     27.2º    0.0 mm
   13-08-2020    00:20      21.9º(----)     80%      180 (S)      1.6 km/h    1015.3 hpa     27.1º    0.0 mm
   13-08-2020    00:15      22.0º(----)     79%      180 (S)      1.6 km/h    1015.3 hpa     27.1º    0.0 mm
   13-08-2020    00:10      22.0º(----)     78%      180 (S)      1.6 km/h    1015.3 hpa     27.1º    0.0 mm
   13-08-2020    00:05      22.1º(----)     78%      067(NE)      1.6 km/h    1015.4 hpa     27.2º    0.0 mm
   13-08-2020    00:00      22.2º(----)     77%      180 (S)      1.6 km/h    1015.4 hpa     27.3º    0.0 mm